Regional Weather Roundup
Issued by NWS

Home | Current Version | Previous Version | Graphics & Text | Print | Product List | Glossary On
Versions: 1 2 3 4 5 6 7 8 9 10 11 12 13 14 15 16 17 18 19 20 21 22 23 24 25 26 27 28 29 30 31 32 33 34 35 36 37 38 39 40 41 42 43 44 45 46 47 48 49 50
000
ASUS43 KLOT 250100
RWRIL

ILLINOIS REGIONAL WEATHER ROUNDUP
NATIONAL WEATHER SERVICE CHICAGO/ROMEOVILLE IL
700 PM CST MON NOV 24 2014

NOTE: "FAIR" INDICATES FEW OR NO CLOUDS BELOW 12,000 FEET WITH NO
SIGNIFICANT WEATHER AND/OR OBSTRUCTIONS TO VISIBILITY.

* THESE STATIONS ARE NOT UNDER NWS QUALITY CONTROL. THEY ALSO MAY NOT
  REPORT WEATHER SUCH AS PRECIPITATION OR FOG.

ILZ001-002-007-009-015-016-024-250200-
NORTHWEST ILLINOIS

CITY           SKY/WX    TMP DP  RH WIND       PRES   REMARKS
MOLINE         CLOUDY    27  20  75 W22       29.78R WCI  13
STERLING*      CLOUDY   N/A N/A N/A W24G35    29.73R
$$

ILZ003-004-008-010-011-017-018-250200-
NORTH CENTRAL ILLINOIS

CITY           SKY/WX    TMP DP  RH WIND       PRES   REMARKS
ROCKFORD       CLOUDY    24  18  77 W18G26    29.71R WCI  10
$$

ILZ005-006-012>014-019>023-250200-
NORTHEAST ILLINOIS

CITY           SKY/WX    TMP DP  RH WIND       PRES   REMARKS
CHICAGO-OHARE  FLURRIES  26  21  81 W32G41    29.67R WCI   9
CHICAGO-MIDWAY CLOUDY    30  24  78 SW28G35   29.69R WCI  15
AURORA         FLURRIES  28  21  75 W20G32    29.71R WCI  15
WAUKEGAN       LGT SNOW  26  22  84 SW14G25   29.61R FOG     WCI  14
DUPAGE AIRPORT MIX PCPN  26  20  77 W25G43    29.69R WCI  11
WHEELING       CLOUDY    27  21  78 W20G29    29.67R WCI  13
NORTHERLY ISL    N/A     29  24  82 SW15        N/A  WCI  18
$$

LMZ740>746-250200-
SOUTHERN LAKE MICHIGAN

STATION/POSITION SKY/WX   TEMP    WIND        PRES    VSBY  WAVE
                          AIR SEA DIR/SP/G                  HT/PER
                          (F)     (DEG/KT/KT) (MB)    (MI)  (FT/S)
SOUTHERN BUOY              32 42  240/ 29/ 37  999.7R         9/ 8
WAUKEGAN HARBOR            27     250/ 19/ 31   N/A
HARRISON CRIB              29     240/ 23/ 35   N/A
BURNHAM HARBOR             28     270/ 18/ 25   N/A
CALUMET HARBOR             29     230/ 14/ 19 1003.7R
MICHIGAN CITY              31     210/ 28/ 35   N/A
$$

ILZ025>027-034>036-040-047-049-050-058-095>099-250200-
WEST-CENTRAL ILLINOIS

CITY           SKY/WX    TMP DP  RH WIND       PRES   REMARKS
QUINCY         CLOUDY    32  24  72 W13       29.87R WCI  22
$$

ILZ028>032-037-038-041>044-048-051>054-059>061-250200-
CENTRAL ILLINOIS

CITY           SKY/WX    TMP DP  RH WIND       PRES   REMARKS
DECATUR        CLOUDY    35  27  72 W13       29.85R WCI  26
PEORIA         CLOUDY    31  22  69 W12G24    29.82R WCI  22
SPRINGFIELD    CLOUDY    35  25  66 W17G24    29.86R WCI  25
TAYLORVILLE    NOT AVBL
$$

ILZ033-039-045-046-055>057-062-063-250200-
EAST-CENTRAL ILLINOIS

CITY           SKY/WX    TMP DP  RH WIND       PRES   REMARKS
CHAMPAIGN      CLOUDY    34  28  79 W17G28    29.83R WCI  23
MATTOON        CLOUDY    36  26  67 W8        29.86R WCI  30
$$

ILZ079-100>102-250200-
SOUTHWEST ILLINOIS

CITY           SKY/WX    TMP DP  RH WIND       PRES   REMARKS
CAHOKIA*       CLOUDY    40  29  64 W5        29.93R
$$

ILZ064>066-069>071-074>076-080>082-084>086-088>090-092>094-250200-
SOUTH-CENTRAL ILLINOIS

CITY           SKY/WX    TMP DP  RH WIND       PRES   REMARKS
CARBONDALE     MOCLDY    43  30  60 CALM      29.93R
MT. VERNON     CLOUDY    37  28  70 W3        29.93R
$$

ILZ067-068-072-073-078-083-087-091-250200-
SOUTHEAST ILLINOIS

CITY           SKY/WX    TMP DP  RH WIND       PRES   REMARKS
LAWRENCEVILLE  CLOUDY    39  30  70 W10       29.92R WCI  32
$$

ABBREVIATIONS USED IN REMARKS
   TC - TEMPERATURE IN CELSIUS
  WCI - WIND CHILL INDEX
   HX - HEAT INDEX
  VSB - VISIBILITY
$$




USA.gov is the U.S. government's official web portal to all federal, state and local government web resources and services.